When you browse on this site, cookies collect data to enhance your experience and personalize the content and advertising you see.
Visit our Privacy Policy to learn more. By continuing to use the site, you agree to this use of cookies and data.
  • In Lithuania
  • List of Countries
  • For 7 days
  • Water Temperature
  • Weather Map
  • Weather Widgets
  • user-avatar
    Login

    Hourly Weather Nuwejba

    Today, 14 November, Thursday

    Time Temperature Precipitation Wind Pressure Humidity
    00:00 +18°C° 0 mm 0 mps 690 mmHg 65%
    01:00 +18°C° 0 mm 0 mps 690 mmHg 67%
    02:00 +17°C° 0 mm 0 mps 690 mmHg 67%
    03:00 +17°C° 0 mm 0 mps 690 mmHg 68%
    04:00 +17°C° 0 mm 0 mps 690 mmHg 69%
    05:00 +16°C° 0 mm 0 mps 690 mmHg 69%
    06:00 +18°C° 0 mm 0 mps 690 mmHg 64%
    07:00 +22°C° 0 mm 1 mps 691 mmHg 58%
    08:00 +23°C° 0 mm 1 mps 691 mmHg 52%
    09:00 +25°C° 0 mm 1 mps 691 mmHg 45%
    10:00 +26°C° 0 mm 2 mps 692 mmHg 37%
    11:00 +28°C° 0 mm 2 mps 692 mmHg 30%
    12:00 +28°C° 0 mm 2 mps 692 mmHg 29%
    13:00 +29°C° 0 mm 3 mps 691 mmHg 29%
    14:00 +29°C° 0 mm 3 mps 691 mmHg 28%
    15:00 +27°C° 0 mm 3 mps 691 mmHg 35%
    16:00 +26°C° 0 mm 2 mps 691 mmHg 41%
    17:00 +24°C° 0 mm 1 mps 690 mmHg 47%
    18:00 +23°C° 0 mm 1 mps 691 mmHg 49%
    19:00 +22°C° 0 mm 1 mps 691 mmHg 51%
    20:00 +19°C° 0 mm 0 mps 691 mmHg 53%
    21:00 +19°C° 0 mm 0 mps 691 mmHg 53%
    22:00 +19°C° 0 mm 0 mps 691 mmHg 53%
    23:00 +18°C° 0 mm 0 mps 691 mmHg 53%

    Tomorrow, 15 November, Friday

    Time Temperature Precipitation Wind Pressure Humidity
    00:00 +20°C° 0 mm 1 mps 691 mmHg 52%
    01:00 +19°C° 0 mm 1 mps 691 mmHg 52%
    02:00 +19°C° 0 mm 1 mps 691 mmHg 52%
    03:00 +18°C° 0 mm 1 mps 691 mmHg 55%
    04:00 +17°C° 0 mm 2 mps 691 mmHg 58%
    05:00 +17°C° 0 mm 2 mps 691 mmHg 62%
    06:00 +18°C° 0 mm 2 mps 692 mmHg 60%
    07:00 +18°C° 0 mm 2 mps 692 mmHg 59%
    08:00 +19°C° 0 mm 2 mps 693 mmHg 58%
    09:00 +21°C° 0 mm 2 mps 693 mmHg 53%
    10:00 +22°C° 0 mm 3 mps 693 mmHg 49%
    11:00 +24°C° 0 mm 3 mps 693 mmHg 44%
    12:00 +25°C° 0 mm 4 mps 693 mmHg 41%
    13:00 +25°C° 0 mm 4 mps 693 mmHg 38%
    14:00 +26°C° 0 mm 5 mps 692 mmHg 35%
    15:00 +23°C° 0 mm 5 mps 692 mmHg 35%
    16:00 +22°C° 0 mm 6 mps 692 mmHg 36%
    17:00 +20°C° 0 mm 6 mps 692 mmHg 36%
    18:00 +19°C° 0 mm 6 mps 692 mmHg 46%
    19:00 +17°C° 0 mm 5 mps 692 mmHg 55%
    20:00 +16°C° 0 mm 5 mps 692 mmHg 65%
    21:00 +16°C° 0 mm 5 mps 692 mmHg 72%
    22:00 +15°C° 0 mm 4 mps 692 mmHg 80%
    23:00 +14°C° 0 mm 4 mps 692 mmHg 88%

    Day after tomorrow, 16 November, Saturday

    Time Temperature Precipitation Wind Pressure Humidity
    00:00 +14°C° 0 mm 3 mps 692 mmHg 88%
    01:00 +14°C° 0 mm 3 mps 691 mmHg 88%
    02:00 +13°C° 0 mm 3 mps 691 mmHg 88%
    03:00 +13°C° 0 mm 3 mps 691 mmHg 89%
    04:00 +12°C° 0 mm 3 mps 691 mmHg 89%
    05:00 +12°C° 0 mm 3 mps 691 mmHg 90%
    06:00 +12°C° 0 mm 3 mps 691 mmHg 85%
    07:00 +13°C° 0 mm 4 mps 691 mmHg 79%
    08:00 +14°C° 0 mm 4 mps 691 mmHg 74%
    09:00 +15°C° 0 mm 5 mps 691 mmHg 67%
    10:00 +17°C° 0 mm 5 mps 691 mmHg 61%
    11:00 +19°C° 0 mm 6 mps 691 mmHg 54%
    12:00 +20°C° 0 mm 6 mps 691 mmHg 48%
    13:00 +20°C° 0 mm 6 mps 690 mmHg 42%
    14:00 +21°C° 0 mm 6 mps 690 mmHg 36%
    15:00 +20°C° 0 mm 6 mps 690 mmHg 42%
    16:00 +19°C° 0 mm 5 mps 690 mmHg 47%
    17:00 +17°C° 0 mm 5 mps 689 mmHg 53%
    18:00 +16°C° 0 mm 5 mps 689 mmHg 60%
    19:00 +15°C° 0 mm 4 mps 689 mmHg 66%
    20:00 +15°C° 0 mm 4 mps 689 mmHg 73%
    21:00 +14°C° 0 mm 3 mps 689 mmHg 75%
    22:00 +14°C° 0 mm 3 mps 690 mmHg 78%
    23:00 +14°C° 0 mm 2 mps 690 mmHg 80%

    17 November, Sunday

    Time Temperature Precipitation Wind Pressure Humidity
    00:00 +14°C° 0 mm 2 mps 689 mmHg 80%
    01:00 +14°C° 0 mm 2 mps 689 mmHg 80%
    02:00 +13°C° 0 mm 2 mps 689 mmHg 80%
    03:00 +13°C° 0 mm 2 mps 689 mmHg 81%
    04:00 +13°C° 0 mm 2 mps 689 mmHg 82%
    05:00 +13°C° 0 mm 2 mps 689 mmHg 83%
    06:00 +13°C° 0 mm 3 mps 690 mmHg 76%
    07:00 +14°C° 0 mm 4 mps 690 mmHg 68%
    08:00 +15°C° 0 mm 4 mps 691 mmHg 61%
    09:00 +17°C° 0 mm 5 mps 691 mmHg 55%
    10:00 +19°C° 0 mm 5 mps 691 mmHg 50%
    11:00 +21°C° 0 mm 6 mps 691 mmHg 44%
    12:00 +22°C° 0 mm 6 mps 691 mmHg 41%
    13:00 +22°C° 0 mm 6 mps 691 mmHg 39%
    14:00 +23°C° 0 mm 5 mps 690 mmHg 37%
    15:00 +22°C° 0 mm 5 mps 690 mmHg 40%
    16:00 +21°C° 0 mm 4 mps 690 mmHg 44%
    17:00 +20°C° 0 mm 4 mps 690 mmHg 47%
    18:00 +19°C° 0 mm 4 mps 691 mmHg 50%
    19:00 +19°C° 0 mm 4 mps 691 mmHg 53%
    20:00 +18°C° 0 mm 4 mps 691 mmHg 56%
    21:00 +18°C° 0 mm 4 mps 691 mmHg 56%
    22:00 +17°C° 0 mm 3 mps 691 mmHg 57%
    23:00 +16°C° 0 mm 3 mps 691 mmHg 58%

    18 November, Monday

    Time Temperature Precipitation Wind Pressure Humidity
    00:00 +15°C° 0 mm 2 mps 690 mmHg 59%
    01:00 +15°C° 0 mm 2 mps 690 mmHg 59%
    02:00 +14°C° 0 mm 1 mps 690 mmHg 59%
    03:00 +14°C° 0 mm 1 mps 690 mmHg 60%
    04:00 +14°C° 0 mm 1 mps 690 mmHg 61%
    05:00 +14°C° 0 mm 1 mps 690 mmHg 61%
    06:00 +15°C° 0 mm 1 mps 691 mmHg 57%
    07:00 +16°C° 0 mm 1 mps 691 mmHg 52%
    08:00 +18°C° 0 mm 1 mps 692 mmHg 48%
    09:00 +19°C° 0 mm 2 mps 692 mmHg 44%
    10:00 +20°C° 0 mm 2 mps 692 mmHg 40%
    11:00 +23°C° 0 mm 2 mps 692 mmHg 37%
    12:00 +23°C° 0 mm 2 mps 692 mmHg 35%
    13:00 +24°C° 0 mm 3 mps 692 mmHg 34%
    14:00 +24°C° 0 mm 3 mps 692 mmHg 32%
    15:00 +22°C° 0 mm 3 mps 691 mmHg 35%
    16:00 +21°C° 0 mm 3 mps 691 mmHg 38%
    17:00 +20°C° 0 mm 2 mps 691 mmHg 41%
    18:00 +19°C° 0 mm 2 mps 691 mmHg 42%
    19:00 +18°C° 0 mm 2 mps 691 mmHg 44%
    20:00 +17°C° 0 mm 2 mps 692 mmHg 46%
    21:00 +16°C° 0 mm 2 mps 691 mmHg 47%
    22:00 +16°C° 0 mm 1 mps 691 mmHg 49%
    23:00 +15°C° 0 mm 1 mps 691 mmHg 50%

    19 November, Tuesday

    Time Temperature Precipitation Wind Pressure Humidity
    00:00 +15°C° 0 mm 1 mps 691 mmHg 51%
    01:00 +14°C° 0 mm 1 mps 691 mmHg 52%
    02:00 +14°C° 0 mm 1 mps 691 mmHg 54%
    03:00 +14°C° 0 mm 1 mps 691 mmHg 55%
    04:00 +13°C° 0 mm 1 mps 691 mmHg 57%
    05:00 +13°C° 0 mm 1 mps 691 mmHg 59%
    06:00 +14°C° 0 mm 1 mps 691 mmHg 53%
    07:00 +16°C° 0 mm 1 mps 692 mmHg 47%
    08:00 +19°C° 0 mm 1 mps 693 mmHg 41%
    09:00 +19°C° 0 mm 2 mps 693 mmHg 37%
    10:00 +20°C° 0 mm 2 mps 693 mmHg 34%
    11:00 +23°C° 0 mm 2 mps 693 mmHg 30%
    12:00 +22°C° 0 mm 3 mps 692 mmHg 27%
    13:00 +24°C° 0 mm 3 mps 692 mmHg 25%
    14:00 +24°C° 0 mm 3 mps 692 mmHg 22%
    15:00 +22°C° 0 mm 4 mps 691 mmHg 26%
    16:00 +20°C° 0 mm 4 mps 691 mmHg 30%
    17:00 +19°C° 0 mm 4 mps 691 mmHg 34%
    18:00 +18°C° 0 mm 3 mps 691 mmHg 37%
    19:00 +17°C° 0 mm 3 mps 691 mmHg 40%
    20:00 +16°C° 0 mm 2 mps 691 mmHg 43%
    21:00 +15°C° 0 mm 2 mps 691 mmHg 44%
    22:00 +14°C° 0 mm 2 mps 691 mmHg 46%
    23:00 +14°C° 0 mm 2 mps 691 mmHg 47%
    Show more